Wetterdaten: Samstag, 16.11.2013
Datum Zeit Temperatur Luftfeuchte Luftdruck Regen Wind Richtung Richtung Taupunkt Windchill Windben
16.11.2013 00:00 1,3 C 97 % 1024,4 hPa 0,0 l/m 2,3 km/h (1 Bft) NO 45 0,9 C 1,4 C 4,3 km/h (1 Bft)
16.11.2013 00:05 1,2 C 97 % 1024,4 hPa 0,0 l/m 2,1 km/h (1 Bft) NW 315 0,8 C 1,4 C 0,0 km/h (0 Bft)
16.11.2013 00:10 1,3 C 97 % 1024,6 hPa 0,0 l/m 1,4 km/h (1 Bft) N 360 0,9 C 1,4 C 3,7 km/h (1 Bft)
16.11.2013 00:15 1,3 C 97 % 1024,6 hPa 0,0 l/m 2,4 km/h (1 Bft) NO 45 0,9 C 1,4 C 3,4 km/h (1 Bft)
16.11.2013 00:20 1,2 C 97 % 1024,6 hPa 0,0 l/m 3,1 km/h (1 Bft) NO 45 0,8 C 1,0 C 6,3 km/h (2 Bft)
16.11.2013 00:25 1,2 C 97 % 1024,6 hPa 0,0 l/m 2,4 km/h (1 Bft) NO 45 0,8 C 1,3 C 0,0 km/h (0 Bft)
16.11.2013 00:30 1,1 C 97 % 1024,4 hPa 0,0 l/m 1,1 km/h (1 Bft) NO 45 0,7 C 1,2 C 0,0 km/h (0 Bft)
16.11.2013 00:35 1,1 C 97 % 1024,4 hPa 0,0 l/m 0,5 km/h (0 Bft) NO 45 0,7 C 1,2 C 3,7 km/h (1 Bft)
16.11.2013 00:40 1,1 C 97 % 1024,4 hPa 0,0 l/m 1,0 km/h (0 Bft) NO 45 0,7 C 1,1 C 1,6 km/h (1 Bft)
16.11.2013 00:45 1,1 C 97 % 1024,4 hPa 0,0 l/m 1,3 km/h (1 Bft) O 90 0,7 C 1,1 C 3,1 km/h (1 Bft)
16.11.2013 00:50 1,1 C 97 % 1024,3 hPa 0,0 l/m 1,3 km/h (1 Bft) O-SO 112 0,7 C 1,1 C 0,0 km/h (0 Bft)
16.11.2013 00:55 1,1 C 97 % 1024,3 hPa 0,0 l/m 1,0 km/h (0 Bft) N 360 0,7 C 1,1 C 0,0 km/h (0 Bft)
16.11.2013 01:00 1,1 C 97 % 1024,3 hPa 0,0 l/m 0,5 km/h (0 Bft) O 90 0,7 C 1,2 C 2,3 km/h (1 Bft)
16.11.2013 01:05 1,1 C 97 % 1024,3 hPa 0,0 l/m 1,1 km/h (1 Bft) SO 135 0,7 C 1,1 C 3,4 km/h (1 Bft)
16.11.2013 01:10 1,1 C 97 % 1024,4 hPa 0,0 l/m 2,3 km/h (1 Bft) O-NO 67 0,7 C 1,2 C 1,6 km/h (1 Bft)
16.11.2013 01:15 1,1 C 97 % 1024,4 hPa 0,0 l/m 1,6 km/h (1 Bft) O 90 0,7 C 1,2 C 0,0 km/h (0 Bft)
16.11.2013 01:20 1,1 C 97 % 1024,4 hPa 0,0 l/m 1,0 km/h (0 Bft) O-SO 112 0,7 C 1,1 C 1,6 km/h (1 Bft)
16.11.2013 01:25 1,1 C 97 % 1024,4 hPa 0,0 l/m 1,0 km/h (0 Bft) O 90 0,7 C 1,1 C 0,0 km/h (0 Bft)
16.11.2013 01:30 1,1 C 97 % 1024,2 hPa 0,0 l/m 0,2 km/h (0 Bft) O-SO 112 0,7 C 1,1 C 1,8 km/h (1 Bft)
16.11.2013 01:35 1,1 C 97 % 1024,2 hPa 0,0 l/m 0,2 km/h (0 Bft) O-SO 112 0,7 C 1,2 C 0,0 km/h (0 Bft)
16.11.2013 01:40 1,2 C 97 % 1024,2 hPa 0,0 l/m 0,2 km/h (0 Bft) O-SO 112 0,8 C 1,2 C 0,0 km/h (0 Bft)
16.11.2013 01:45 1,2 C 97 % 1024,2 hPa 0,0 l/m 0,3 km/h (0 Bft) O-SO 112 0,8 C 1,2 C 0,0 km/h (0 Bft)
16.11.2013 01:50 1,2 C 97 % 1024,6 hPa 0,0 l/m 1,1 km/h (1 Bft) W-SW 247 0,8 C 1,3 C 2,7 km/h (1 Bft)
16.11.2013 01:55 1,2 C 97 % 1024,6 hPa 0,0 l/m 1,8 km/h (1 Bft) W-NW 292 0,8 C 1,3 C 5,3 km/h (1 Bft)
16.11.2013 02:00 1,2 C 97 % 1024,6 hPa 0,0 l/m 2,7 km/h (1 Bft) W 270 0,8 C 1,1 C 3,4 km/h (1 Bft)
16.11.2013 02:05 1,2 C 97 % 1024,6 hPa 0,0 l/m 3,1 km/h (1 Bft) W-SW 247 0,8 C 0,9 C 3,9 km/h (1 Bft)
16.11.2013 02:10 1,2 C 97 % 1024,8 hPa 0,0 l/m 3,1 km/h (1 Bft) S-SW 202 0,8 C 0,9 C 2,1 km/h (1 Bft)
16.11.2013 02:15 1,2 C 97 % 1024,8 hPa 0,0 l/m 2,1 km/h (1 Bft) SW 225 0,8 C 1,3 C 2,6 km/h (1 Bft)
16.11.2013 02:20 1,2 C 97 % 1024,8 hPa 0,0 l/m 1,9 km/h (1 Bft) W 270 0,8 C 1,3 C 4,0 km/h (1 Bft)
16.11.2013 02:23 1,2 C 97 % 1024,8 hPa 0,0 l/m 2,4 km/h (1 Bft) W-SW 247 0,8 C 1,3 C 0,0 km/h (0 Bft)
16.11.2013 02:25 1,2 C 97 % 1024,8 hPa 0,0 l/m 2,4 km/h (1 Bft) W-SW 247 0,8 C 1,3 C 0,0 km/h (0 Bft)
16.11.2013 02:30 1,2 C 97 % 1025,5 hPa 0,0 l/m 1,9 km/h (1 Bft) SW 225 0,8 C 1,3 C 4,8 km/h (1 Bft)
16.11.2013 02:35 1,2 C 97 % 1025,5 hPa 0,0 l/m 2,1 km/h (1 Bft) W-SW 247 0,8 C 1,3 C 3,5 km/h (1 Bft)
16.11.2013 02:40 1,2 C 97 % 1025,5 hPa 0,0 l/m 2,3 km/h (1 Bft) S 180 0,8 C 1,3 C 2,4 km/h (1 Bft)
16.11.2013 02:45 1,2 C 97 % 1025,5 hPa 0,0 l/m 1,1 km/h (1 Bft) S 180 0,8 C 1,4 C 0,0 km/h (0 Bft)
16.11.2013 02:50 1,3 C 97 % 1025,8 hPa 0,0 l/m 0,6 km/h (0 Bft) SO 135 0,9 C 1,3 C 1,6 km/h (1 Bft)
16.11.2013 02:55 1,2 C 97 % 1025,8 hPa 0,0 l/m 1,1 km/h (1 Bft) O-SO 112 0,8 C 1,3 C 3,5 km/h (1 Bft)
16.11.2013 03:00 1,2 C 97 % 1025,8 hPa 0,0 l/m 1,4 km/h (1 Bft) S-SO 157 0,8 C 1,3 C 3,1 km/h (1 Bft)
16.11.2013 03:05 1,2 C 97 % 1025,8 hPa 0,0 l/m 1,4 km/h (1 Bft) SO 135 0,8 C 1,3 C 0,0 km/h (0 Bft)
16.11.2013 03:10 1,2 C 97 % 1025,8 hPa 0,0 l/m 1,1 km/h (1 Bft) SO 135 0,8 C 1,3 C 2,1 km/h (1 Bft)
16.11.2013 03:15 1,2 C 97 % 1025,8 hPa 0,0 l/m 2,4 km/h (1 Bft) O 90 0,8 C 1,3 C 4,8 km/h (1 Bft)
16.11.2013 03:20 1,2 C 97 % 1025,8 hPa 0,0 l/m 2,9 km/h (1 Bft) O-SO 112 0,8 C 1,0 C 6,9 km/h (2 Bft)
16.11.2013 03:25 1,2 C 97 % 1025,8 hPa 0,0 l/m 2,1 km/h (1 Bft) NO 45 0,8 C 1,3 C 2,9 km/h (1 Bft)
16.11.2013 03:30 1,2 C 97 % 1025,5 hPa 0,0 l/m 1,1 km/h (1 Bft) O-SO 112 0,8 C 1,3 C 0,0 km/h (0 Bft)
16.11.2013 03:35 1,2 C 97 % 1025,5 hPa 0,0 l/m 0,8 km/h (0 Bft) O 90 0,8 C 1,3 C 0,0 km/h (0 Bft)
16.11.2013 03:40 1,2 C 97 % 1025,5 hPa 0,0 l/m 0,8 km/h (0 Bft) O-SO 112 0,8 C 1,2 C 0,0 km/h (0 Bft)
16.11.2013 03:45 1,2 C 97 % 1025,5 hPa 0,0 l/m 0,8 km/h (0 Bft) O-SO 112 0,8 C 1,2 C 0,0 km/h (0 Bft)
16.11.2013 03:50 1,2 C 97 % 1025,6 hPa 0,0 l/m 0,0 km/h (0 Bft) O 90 0,8 C 1,2 C 0,0 km/h (0 Bft)
16.11.2013 03:55 1,2 C 97 % 1025,6 hPa 0,0 l/m 0,0 km/h (0 Bft) O-SO 112 0,8 C 1,2 C 0,0 km/h (0 Bft)
16.11.2013 04:00 1,2 C 97 % 1025,6 hPa 0,0 l/m 0,5 km/h (0 Bft) SO 135 0,8 C 1,3 C 2,3 km/h (1 Bft)
16.11.2013 04:05 1,2 C 97 % 1025,6 hPa 0,0 l/m 0,6 km/h (0 Bft) SO 135 0,8 C 1,2 C 0,0 km/h (0 Bft)
16.11.2013 04:10 1,2 C 97 % 1025,8 hPa 0,0 l/m 0,2 km/h (0 Bft) SO 135 0,8 C 1,2 C 0,0 km/h (0 Bft)
16.11.2013 04:15 1,2 C 97 % 1025,8 hPa 0,0 l/m 0,0 km/h (0 Bft) SO 135 0,8 C 1,2 C 0,0 km/h (0 Bft)
16.11.2013 04:20 1,2 C 97 % 1025,8 hPa 0,0 l/m 0,0 km/h (0 Bft) SO 135 0,8 C 1,2 C 0,0 km/h (0 Bft)
16.11.2013 04:25 1,2 C 97 % 1025,8 hPa 0,0 l/m 0,0 km/h (0 Bft) SO 135 0,8 C 1,2 C 0,0 km/h (0 Bft)
16.11.2013 04:30 1,1 C 97 % 1025,8 hPa 0,0 l/m 0,2 km/h (0 Bft) O-SO 112 0,7 C 1,2 C 0,0 km/h (0 Bft)
16.11.2013 04:35 1,1 C 97 % 1025,8 hPa 0,0 l/m 0,3 km/h (0 Bft) S-SW 202 0,7 C 1,2 C 0,0 km/h (0 Bft)
16.11.2013 04:40 1,1 C 97 % 1025,8 hPa 0,0 l/m 0,2 km/h (0 Bft) S-SW 202 0,7 C 1,2 C 0,0 km/h (0 Bft)
16.11.2013 04:45 1,1 C 97 % 1025,8 hPa 0,0 l/m 0,0 km/h (0 Bft) S 180 0,7 C 1,2 C 0,0 km/h (0 Bft)
16.11.2013 04:50 1,1 C 97 % 1025,8 hPa 0,0 l/m 0,3 km/h (0 Bft) O 90 0,7 C 1,1 C 0,0 km/h (0 Bft)
16.11.2013 04:55 1,1 C 97 % 1025,8 hPa 0,0 l/m 0,8 km/h (0 Bft) O-SO 112 0,7 C 1,1 C 0,0 km/h (0 Bft)
16.11.2013 05:00 1,0 C 97 % 1025,8 hPa 0,0 l/m 0,5 km/h (0 Bft) O-SO 112 0,6 C 1,1 C 0,0 km/h (0 Bft)
16.11.2013 05:05 1,0 C 97 % 1025,8 hPa 0,0 l/m 0,3 km/h (0 Bft) NO 45 0,6 C 1,1 C 0,0 km/h (0 Bft)
16.11.2013 05:10 1,0 C 97 % 1025,8 hPa 0,0 l/m 0,5 km/h (0 Bft) NW 315 0,6 C 1,0 C 0,0 km/h (0 Bft)
16.11.2013 05:15 1,0 C 97 % 1025,8 hPa 0,0 l/m 0,5 km/h (0 Bft) N-NO 22 0,6 C 1,0 C 0,0 km/h (0 Bft)
16.11.2013 05:20 1,0 C 97 % 1025,8 hPa 0,0 l/m 0,0 km/h (0 Bft) W-NW 292 0,6 C 1,0 C 0,0 km/h (0 Bft)
16.11.2013 05:25 1,0 C 97 % 1025,8 hPa 0,0 l/m 0,0 km/h (0 Bft) W-NW 292 0,6 C 1,0 C 0,0 km/h (0 Bft)
16.11.2013 05:30 1,0 C 97 % 1026,4 hPa 0,0 l/m 0,0 km/h (0 Bft) W-NW 292 0,6 C 1,0 C 0,0 km/h (0 Bft)
16.11.2013 05:35 1,0 C 97 % 1026,4 hPa 0,0 l/m 0,0 km/h (0 Bft) W-NW 292 0,6 C 0,9 C 0,0 km/h (0 Bft)
16.11.2013 05:40 1,0 C 97 % 1026,4 hPa 0,0 l/m 0,0 km/h (0 Bft) W-NW 292 0,6 C 0,9 C 0,0 km/h (0 Bft)
16.11.2013 05:45 1,0 C 97 % 1026,4 hPa 0,0 l/m 0,0 km/h (0 Bft) NO 45 0,6 C 0,9 C 0,0 km/h (0 Bft)
16.11.2013 05:50 1,0 C 97 % 1026,8 hPa 0,0 l/m 0,6 km/h (0 Bft) O-NO 67 0,6 C 0,9 C 0,0 km/h (0 Bft)
16.11.2013 05:55 0,9 C 97 % 1026,8 hPa 0,0 l/m 1,1 km/h (1 Bft) N-NO 22 0,5 C 0,9 C 3,5 km/h (1 Bft)
16.11.2013 06:00 1,0 C 97 % 1026,8 hPa 0,0 l/m 0,8 km/h (0 Bft) N-NO 22 0,6 C 0,9 C 1,6 km/h (1 Bft)
16.11.2013 06:05 1,0 C 97 % 1026,8 hPa 0,0 l/m 1,0 km/h (0 Bft) O-SO 112 0,6 C 0,9 C 2,4 km/h (1 Bft)
16.11.2013 06:10 1,0 C 97 % 1027,5 hPa 0,0 l/m 0,3 km/h (0 Bft) O-SO 112 0,6 C 0,9 C 0,0 km/h (0 Bft)
16.11.2013 06:15 1,0 C 97 % 1027,5 hPa 0,0 l/m 0,5 km/h (0 Bft) W-NW 292 0,6 C 0,9 C 0,0 km/h (0 Bft)
16.11.2013 06:20 1,0 C 97 % 1027,5 hPa 0,0 l/m 1,1 km/h (1 Bft) W-NW 292 0,6 C 1,0 C 0,0 km/h (0 Bft)
16.11.2013 06:25 1,0 C 97 % 1027,5 hPa 0,0 l/m 1,3 km/h (1 Bft) N-NW 337 0,6 C 1,0 C 2,1 km/h (1 Bft)
16.11.2013 06:30 1,0 C 97 % 1027,9 hPa 0,0 l/m 0,6 km/h (0 Bft) N 360 0,6 C 1,0 C 2,4 km/h (1 Bft)
16.11.2013 06:35 1,0 C 97 % 1027,9 hPa 0,0 l/m 0,6 km/h (0 Bft) NO 45 0,6 C 1,0 C 3,2 km/h (1 Bft)
16.11.2013 06:40 1,0 C 97 % 1027,9 hPa 0,0 l/m 1,3 km/h (1 Bft) N-NW 337 0,6 C 1,0 C 3,9 km/h (1 Bft)
16.11.2013 06:45 1,0 C 97 % 1027,9 hPa 0,0 l/m 1,3 km/h (1 Bft) N 360 0,6 C 1,0 C 0,0 km/h (0 Bft)
16.11.2013 06:50 1,0 C 97 % 1028,2 hPa 0,0 l/m 1,3 km/h (1 Bft) N-NO 22 0,6 C 1,0 C 1,6 km/h (1 Bft)
16.11.2013 06:55 1,0 C 97 % 1028,2 hPa 0,0 l/m 1,1 km/h (1 Bft) NO 45 0,6 C 1,0 C 4,0 km/h (1 Bft)
16.11.2013 07:00 1,0 C 97 % 1028,2 hPa 0,0 l/m 1,4 km/h (1 Bft) NO 45 0,6 C 1,0 C 2,3 km/h (1 Bft)
16.11.2013 07:05 1,0 C 97 % 1028,2 hPa 0,0 l/m 2,6 km/h (1 Bft) NW 315 0,6 C 0,9 C 2,9 km/h (1 Bft)
16.11.2013 07:10 1,0 C 97 % 1028,1 hPa 0,0 l/m 4,5 km/h (1 Bft) NW 315 0,6 C -0,1 C 7,4 km/h (2 Bft)
16.11.2013 07:15 1,0 C 97 % 1028,1 hPa 0,0 l/m 4,7 km/h (1 Bft) W-NW 292 0,6 C -0,2 C 6,1 km/h (2 Bft)
16.11.2013 07:20 1,1 C 97 % 1028,1 hPa 0,0 l/m 4,3 km/h (1 Bft) W-NW 292 0,7 C 0,0 C 4,3 km/h (1 Bft)
16.11.2013 07:23 1,1 C 97 % 1028,1 hPa 0,0 l/m 3,7 km/h (1 Bft) N-NW 337 0,7 C 0,3 C 5,5 km/h (1 Bft)
16.11.2013 07:25 1,1 C 97 % 1028,1 hPa 0,0 l/m 3,7 km/h (1 Bft) N-NW 337 0,7 C 0,3 C 5,5 km/h (1 Bft)
16.11.2013 07:30 1,1 C 97 % 1028,4 hPa 0,0 l/m 3,1 km/h (1 Bft) N-NW 337 0,7 C 0,7 C 4,3 km/h (1 Bft)
16.11.2013 07:35 1,1 C 97 % 1028,4 hPa 0,0 l/m 2,7 km/h (1 Bft) W-NW 292 0,7 C 1,1 C 2,4 km/h (1 Bft)
16.11.2013 07:40 1,1 C 97 % 1028,4 hPa 0,0 l/m 2,7 km/h (1 Bft) NW 315 0,7 C 1,1 C 4,8 km/h (1 Bft)
16.11.2013 07:45 1,2 C 97 % 1028,4 hPa 0,0 l/m 2,9 km/h (1 Bft) N 360 0,8 C 0,9 C 2,1 km/h (1 Bft)
16.11.2013 07:50 1,2 C 97 % 1028,5 hPa 0,0 l/m 2,1 km/h (1 Bft) N 360 0,8 C 1,2 C 0,0 km/h (0 Bft)
16.11.2013 07:55 1,2 C 97 % 1028,5 hPa 0,0 l/m 1,0 km/h (0 Bft) N-NW 337 0,8 C 1,3 C 4,2 km/h (1 Bft)
16.11.2013 08:00 1,2 C 97 % 1028,5 hPa 0,0 l/m 1,0 km/h (0 Bft) N-NW 337 0,8 C 1,3 C 0,0 km/h (0 Bft)
16.11.2013 08:05 1,3 C 97 % 1028,5 hPa 0,0 l/m 1,3 km/h (1 Bft) W-NW 292 0,9 C 1,3 C 1,6 km/h (1 Bft)
16.11.2013 08:10 1,2 C 97 % 1028,3 hPa 0,0 l/m 1,4 km/h (1 Bft) W-NW 292 0,8 C 1,3 C 0,0 km/h (0 Bft)
16.11.2013 08:15 1,3 C 97 % 1028,3 hPa 0,0 l/m 1,6 km/h (1 Bft) N-NO 22 0,9 C 1,4 C 0,0 km/h (0 Bft)
16.11.2013 08:20 1,2 C 97 % 1028,3 hPa 0,0 l/m 1,9 km/h (1 Bft) N-NW 337 0,8 C 1,4 C 5,0 km/h (1 Bft)
16.11.2013 08:25 1,2 C 97 % 1028,3 hPa 0,0 l/m 3,1 km/h (1 Bft) N-NW 337 0,8 C 1,0 C 4,2 km/h (1 Bft)
16.11.2013 08:30 1,3 C 97 % 1028,5 hPa 0,0 l/m 3,1 km/h (1 Bft) N 360 0,9 C 1,0 C 4,3 km/h (1 Bft)
16.11.2013 08:35 1,3 C 97 % 1028,5 hPa 0,0 l/m 3,2 km/h (1 Bft) N 360 0,9 C 0,9 C 3,1 km/h (1 Bft)
16.11.2013 08:40 1,3 C 97 % 1028,5 hPa 0,0 l/m 3,4 km/h (1 Bft) W-NW 292 0,9 C 0,8 C 2,7 km/h (1 Bft)
16.11.2013 08:45 1,4 C 97 % 1028,5 hPa 0,0 l/m 3,1 km/h (1 Bft) W-NW 292 1,0 C 1,1 C 3,9 km/h (1 Bft)
16.11.2013 08:50 1,4 C 97 % 1028,5 hPa 0,0 l/m 3,4 km/h (1 Bft) NW 315 1,0 C 0,9 C 7,6 km/h (2 Bft)
16.11.2013 08:55 1,4 C 97 % 1028,5 hPa 0,0 l/m 3,7 km/h (1 Bft) N-NW 337 1,0 C 0,8 C 2,6 km/h (1 Bft)
16.11.2013 09:00 1,4 C 97 % 1028,5 hPa 0,0 l/m 3,2 km/h (1 Bft) N-NW 337 1,0 C 1,1 C 3,1 km/h (1 Bft)
16.11.2013 09:05 1,4 C 97 % 1028,5 hPa 0,0 l/m 3,1 km/h (1 Bft) N 360 1,0 C 1,1 C 5,5 km/h (1 Bft)
16.11.2013 09:10 1,4 C 97 % 1028,6 hPa 0,0 l/m 3,2 km/h (1 Bft) W-NW 292 1,0 C 1,1 C 2,6 km/h (1 Bft)
16.11.2013 09:15 1,4 C 97 % 1028,6 hPa 0,0 l/m 3,7 km/h (1 Bft) N 360 1,0 C 0,8 C 6,0 km/h (2 Bft)
16.11.2013 09:20 1,4 C 97 % 1028,6 hPa 0,0 l/m 4,3 km/h (1 Bft) N 360 1,0 C 0,4 C 8,2 km/h (2 Bft)
16.11.2013 09:25 1,5 C 97 % 1028,6 hPa 0,0 l/m 4,0 km/h (1 Bft) W-NW 292 1,1 C 0,6 C 2,7 km/h (1 Bft)
16.11.2013 09:30 1,5 C 97 % 1028,2 hPa 0,0 l/m 2,9 km/h (1 Bft) NO 45 1,1 C 1,4 C 8,4 km/h (2 Bft)
16.11.2013 09:35 1,5 C 97 % 1028,2 hPa 0,0 l/m 3,2 km/h (1 Bft) W-NW 292 1,1 C 1,2 C 4,7 km/h (1 Bft)
16.11.2013 09:40 1,5 C 97 % 1028,2 hPa 0,0 l/m 3,7 km/h (1 Bft) S-SW 202 1,1 C 0,9 C 7,4 km/h (2 Bft)
16.11.2013 09:45 1,5 C 97 % 1028,2 hPa 0,0 l/m 4,2 km/h (1 Bft) W-NW 292 1,1 C 0,6 C 4,8 km/h (1 Bft)
16.11.2013 09:50 1,5 C 97 % 1028,3 hPa 0,0 l/m 4,5 km/h (1 Bft) W 270 1,1 C 0,4 C 4,0 km/h (1 Bft)
16.11.2013 09:55 1,4 C 97 % 1028,3 hPa 0,0 l/m 4,5 km/h (1 Bft) N 360 1,0 C 0,4 C 5,0 km/h (1 Bft)
16.11.2013 10:00 1,6 C 97 % 1028,3 hPa 0,0 l/m 3,9 km/h (1 Bft) W-NW 292 1,2 C 0,9 C 2,7 km/h (1 Bft)
16.11.2013 10:05 1,6 C 97 % 1028,3 hPa 0,0 l/m 3,7 km/h (1 Bft) W-NW 292 1,2 C 1,0 C 7,1 km/h (2 Bft)
16.11.2013 10:10 1,5 C 97 % 1028,3 hPa 0,0 l/m 4,2 km/h (1 Bft) NO 45 1,1 C 0,7 C 1,9 km/h (1 Bft)
16.11.2013 10:15 1,5 C 97 % 1028,3 hPa 0,0 l/m 4,2 km/h (1 Bft) N-NO 22 1,1 C 0,7 C 4,8 km/h (1 Bft)
16.11.2013 10:20 1,5 C 97 % 1028,3 hPa 0,0 l/m 3,9 km/h (1 Bft) S 180 1,1 C 0,9 C 6,6 km/h (2 Bft)
16.11.2013 10:25 1,6 C 97 % 1028,3 hPa 0,0 l/m 4,2 km/h (1 Bft) N 360 1,2 C 0,7 C 5,0 km/h (1 Bft)
16.11.2013 10:30 1,6 C 97 % 1028,2 hPa 0,0 l/m 4,2 km/h (1 Bft) W-NW 292 1,2 C 0,9 C 6,3 km/h (2 Bft)
16.11.2013 10:35 1,7 C 97 % 1028,2 hPa 0,0 l/m 3,5 km/h (1 Bft) N-NW 337 1,3 C 1,3 C 0,0 km/h (0 Bft)
16.11.2013 10:40 1,6 C 96 % 1028,2 hPa 0,0 l/m 3,4 km/h (1 Bft) N-NW 337 1,0 C 1,5 C 6,6 km/h (2 Bft)
16.11.2013 10:45 1,7 C 96 % 1028,2 hPa 0,0 l/m 3,9 km/h (1 Bft) N-NO 22 1,1 C 1,2 C 5,0 km/h (1 Bft)
16.11.2013 10:50 1,8 C 96 % 1028,2 hPa 0,0 l/m 4,7 km/h (1 Bft) N-NO 22 1,2 C 0,8 C 1,6 km/h (1 Bft)
16.11.2013 10:55 1,8 C 96 % 1028,2 hPa 0,0 l/m 3,9 km/h (1 Bft) N 360 1,2 C 1,3 C 2,7 km/h (1 Bft)
16.11.2013 11:00 1,8 C 96 % 1028,2 hPa 0,0 l/m 3,7 km/h (1 Bft) N-NW 337 1,2 C 1,4 C 6,0 km/h (2 Bft)
16.11.2013 11:05 1,8 C 96 % 1028,2 hPa 0,0 l/m 4,0 km/h (1 Bft) N 360 1,2 C 1,1 C 7,6 km/h (2 Bft)
16.11.2013 11:10 1,6 C 96 % 1028,1 hPa 0,0 l/m 4,0 km/h (1 Bft) N-NW 337 1,0 C 1,1 C 6,1 km/h (2 Bft)
16.11.2013 11:15 1,5 C 96 % 1028,1 hPa 0,0 l/m 4,8 km/h (1 Bft) W-NW 292 0,9 C 0,6 C 3,9 km/h (1 Bft)
16.11.2013 11:20 1,5 C 96 % 1028,1 hPa 0,0 l/m 5,1 km/h (1 Bft) N-NW 337 0,9 C 0,3 C 6,4 km/h (2 Bft)
16.11.2013 11:25 1,5 C 96 % 1028,1 hPa 0,0 l/m 4,8 km/h (1 Bft) N-NW 337 0,9 C 0,5 C 7,1 km/h (2 Bft)
16.11.2013 11:30 1,6 C 96 % 1027,9 hPa 0,0 l/m 4,8 km/h (1 Bft) N-NO 22 1,0 C 0,5 C 2,9 km/h (1 Bft)
16.11.2013 11:35 1,6 C 96 % 1027,9 hPa 0,0 l/m 5,3 km/h (1 Bft) N 360 1,0 C 0,3 C 6,9 km/h (2 Bft)
16.11.2013 11:40 1,7 C 96 % 1027,9 hPa 0,0 l/m 3,9 km/h (1 Bft) N 360 1,1 C 1,1 C 8,5 km/h (2 Bft)
16.11.2013 11:45 1,8 C 96 % 1027,9 hPa 0,0 l/m 3,4 km/h (1 Bft) W-SW 247 1,2 C 1,6 C 4,5 km/h (1 Bft)
16.11.2013 11:50 1,7 C 96 % 1027,8 hPa 0,0 l/m 3,4 km/h (1 Bft) NW 315 1,1 C 1,6 C 3,7 km/h (1 Bft)
16.11.2013 11:55 1,8 C 96 % 1027,8 hPa 0,0 l/m 3,4 km/h (1 Bft) N-NW 337 1,2 C 1,6 C 7,4 km/h (2 Bft)
16.11.2013 12:00 1,7 C 95 % 1027,8 hPa 0,0 l/m 4,0 km/h (1 Bft) W-NW 292 1,0 C 1,3 C 9,2 km/h (2 Bft)
16.11.2013 12:05 1,8 C 95 % 1027,8 hPa 0,0 l/m 4,7 km/h (1 Bft) W-NW 292 1,1 C 0,8 C 5,6 km/h (1 Bft)
16.11.2013 12:10 1,8 C 95 % 1027,8 hPa 0,0 l/m 4,5 km/h (1 Bft) N-NW 337 1,1 C 0,9 C 3,7 km/h (1 Bft)
16.11.2013 12:15 1,8 C 95 % 1027,8 hPa 0,0 l/m 4,3 km/h (1 Bft) N 360 1,1 C 1,0 C 0,0 km/h (0 Bft)
16.11.2013 12:20 1,6 C 95 % 1027,8 hPa 0,0 l/m 4,3 km/h (1 Bft) W 270 0,9 C 1,0 C 3,7 km/h (1 Bft)
16.11.2013 12:23 1,7 C 95 % 1027,8 hPa 0,0 l/m 4,5 km/h (1 Bft) W-NW 292 1,0 C 1,0 C 3,7 km/h (1 Bft)
16.11.2013 12:25 1,7 C 95 % 1027,8 hPa 0,0 l/m 4,5 km/h (1 Bft) W-NW 292 1,0 C 1,0 C 3,7 km/h (1 Bft)
16.11.2013 12:30 1,8 C 95 % 1027,8 hPa 0,0 l/m 5,1 km/h (1 Bft) NW 315 1,1 C 0,6 C 6,1 km/h (2 Bft)
16.11.2013 12:35 1,7 C 95 % 1027,8 hPa 0,0 l/m 5,3 km/h (1 Bft) N 360 1,0 C 0,6 C 9,8 km/h (2 Bft)
16.11.2013 12:40 1,7 C 95 % 1027,8 hPa 0,0 l/m 4,7 km/h (1 Bft) W-NW 292 1,0 C 0,8 C 1,8 km/h (1 Bft)
16.11.2013 12:45 1,7 C 95 % 1027,8 hPa 0,0 l/m 4,2 km/h (1 Bft) W-NW 292 1,0 C 1,2 C 4,7 km/h (1 Bft)
16.11.2013 12:50 1,7 C 95 % 1027,8 hPa 0,0 l/m 4,2 km/h (1 Bft) W 270 1,0 C 1,1 C 7,4 km/h (2 Bft)
16.11.2013 12:55 1,7 C 95 % 1027,8 hPa 0,0 l/m 5,0 km/h (1 Bft) SW 225 1,0 C 0,7 C 6,4 km/h (2 Bft)
16.11.2013 13:00 1,7 C 94 % 1027,8 hPa 0,0 l/m 4,8 km/h (1 Bft) N-NO 22 0,8 C 0,7 C 5,5 km/h (1 Bft)
16.11.2013 13:05 1,7 C 94 % 1027,8 hPa 0,0 l/m 4,7 km/h (1 Bft) N-NW 337 0,8 C 0,8 C 5,6 km/h (1 Bft)
16.11.2013 13:10 1,7 C 94 % 1027,4 hPa 0,0 l/m 4,2 km/h (1 Bft) N-NO 22 0,8 C 1,2 C 5,3 km/h (1 Bft)
16.11.2013 13:15 1,7 C 94 % 1027,4 hPa 0,0 l/m 4,0 km/h (1 Bft) W-NW 292 0,8 C 1,3 C 5,0 km/h (1 Bft)
16.11.2013 13:20 1,7 C 94 % 1027,4 hPa 0,0 l/m 5,0 km/h (1 Bft) NW 315 0,8 C 0,7 C 7,4 km/h (2 Bft)
16.11.2013 13:25 1,6 C 94 % 1027,4 hPa 0,0 l/m 5,3 km/h (1 Bft) NW 315 0,7 C 0,6 C 6,9 km/h (2 Bft)
16.11.2013 13:30 1,6 C 94 % 1026,9 hPa 0,0 l/m 5,5 km/h (1 Bft) W-NW 292 0,7 C 0,3 C 6,4 km/h (2 Bft)
16.11.2013 13:35 1,6 C 94 % 1026,9 hPa 0,0 l/m 6,0 km/h (2 Bft) W-NW 292 0,7 C 0,2 C 7,1 km/h (2 Bft)
16.11.2013 13:40 1,6 C 94 % 1026,9 hPa 0,0 l/m 6,1 km/h (2 Bft) NW 315 0,7 C 0,1 C 11,6 km/h (2 Bft)
16.11.2013 13:45 1,7 C 94 % 1026,9 hPa 0,0 l/m 5,6 km/h (1 Bft) N 360 0,8 C 0,3 C 6,9 km/h (2 Bft)
16.11.2013 13:50 1,8 C 94 % 1026,9 hPa 0,0 l/m 5,3 km/h (1 Bft) N-NW 337 0,9 C 0,4 C 6,4 km/h (2 Bft)
16.11.2013 13:55 1,8 C 94 % 1026,9 hPa 0,0 l/m 5,1 km/h (1 Bft) O-SO 112 0,9 C 0,5 C 6,8 km/h (2 Bft)
16.11.2013 14:00 1,8 C 94 % 1026,9 hPa 0,0 l/m 4,3 km/h (1 Bft) N-NW 337 0,9 C 1,0 C 4,2 km/h (1 Bft)
16.11.2013 14:05 1,8 C 94 % 1026,9 hPa 0,0 l/m 5,0 km/h (1 Bft) N 360 0,9 C 0,7 C 7,2 km/h (2 Bft)
16.11.2013 14:10 1,8 C 94 % 1026,8 hPa 0,0 l/m 4,8 km/h (1 Bft) N 360 0,9 C 0,7 C 6,6 km/h (2 Bft)
16.11.2013 14:15 1,8 C 94 % 1026,8 hPa 0,0 l/m 5,1 km/h (1 Bft) W 270 0,9 C 0,6 C 5,6 km/h (1 Bft)
16.11.2013 14:20 1,8 C 94 % 1026,8 hPa 0,0 l/m 5,5 km/h (1 Bft) N 360 0,9 C 0,4 C 4,8 km/h (1 Bft)
16.11.2013 14:25 1,7 C 94 % 1026,8 hPa 0,0 l/m 5,8 km/h (2 Bft) N-NW 337 0,8 C 0,3 C 6,6 km/h (2 Bft)
16.11.2013 14:30 1,7 C 94 % 1026,4 hPa 0,0 l/m 5,6 km/h (1 Bft) NW 315 0,8 C 0,3 C 5,0 km/h (1 Bft)
16.11.2013 14:35 1,7 C 94 % 1026,4 hPa 0,0 l/m 5,5 km/h (1 Bft) NW 315 0,8 C 0,3 C 5,5 km/h (1 Bft)
16.11.2013 14:40 1,8 C 94 % 1026,4 hPa 0,0 l/m 5,0 km/h (1 Bft) N-NW 337 0,9 C 0,6 C 6,1 km/h (2 Bft)
16.11.2013 14:45 1,8 C 95 % 1026,4 hPa 0,0 l/m 3,9 km/h (1 Bft) W-NW 292 1,1 C 1,1 C 0,0 km/h (0 Bft)
16.11.2013 14:50 1,8 C 95 % 1026,2 hPa 0,0 l/m 3,9 km/h (1 Bft) W-NW 292 1,1 C 1,1 C 4,2 km/h (1 Bft)
16.11.2013 14:55 1,8 C 95 % 1026,2 hPa 0,0 l/m 4,3 km/h (1 Bft) W-NW 292 1,1 C 0,8 C 5,1 km/h (1 Bft)
16.11.2013 15:00 1,7 C 95 % 1026,2 hPa 0,0 l/m 4,5 km/h (1 Bft) NW 315 1,0 C 0,8 C 3,2 km/h (1 Bft)
16.11.2013 15:05 1,8 C 95 % 1026,2 hPa 0,0 l/m 4,2 km/h (1 Bft) N-NO 22 1,1 C 0,9 C 3,9 km/h (1 Bft)
16.11.2013 15:10 1,7 C 95 % 1026,0 hPa 0,0 l/m 3,7 km/h (1 Bft) N-NW 337 1,0 C 1,2 C 7,6 km/h (2 Bft)
16.11.2013 15:15 1,6 C 95 % 1026,0 hPa 0,0 l/m 4,3 km/h (1 Bft) N-NW 337 0,9 C 0,8 C 6,4 km/h (2 Bft)
16.11.2013 15:20 1,7 C 95 % 1026,0 hPa 0,0 l/m 4,5 km/h (1 Bft) N 360 1,0 C 0,7 C 5,3 km/h (1 Bft)
16.11.2013 15:25 1,6 C 95 % 1026,0 hPa 0,0 l/m 4,2 km/h (1 Bft) W-NW 292 0,9 C 0,8 C 4,8 km/h (1 Bft)
16.11.2013 15:30 1,6 C 95 % 1025,8 hPa 0,0 l/m 4,3 km/h (1 Bft) N-NW 337 0,9 C 0,7 C 4,7 km/h (1 Bft)
16.11.2013 15:35 1,6 C 95 % 1025,8 hPa 0,0 l/m 4,3 km/h (1 Bft) N-NW 337 0,9 C 0,7 C 4,7 km/h (1 Bft)
16.11.2013 15:40 1,6 C 95 % 1025,8 hPa 0,0 l/m 4,0 km/h (1 Bft) N 360 0,9 C 0,8 C 2,6 km/h (1 Bft)
16.11.2013 15:45 1,5 C 95 % 1025,8 hPa 0,0 l/m 4,3 km/h (1 Bft) N-NO 22 0,8 C 0,7 C 5,1 km/h (1 Bft)
16.11.2013 15:50 1,5 C 95 % 1025,8 hPa 0,0 l/m 5,3 km/h (1 Bft) N-NW 337 0,8 C 0,2 C 6,8 km/h (2 Bft)
16.11.2013 15:55 1,5 C 95 % 1025,8 hPa 0,0 l/m 5,3 km/h (1 Bft) N-NW 337 0,8 C 0,2 C 6,8 km/h (2 Bft)
16.11.2013 16:00 1,5 C 95 % 1025,8 hPa 0,0 l/m 6,1 km/h (2 Bft) N 360 0,8 C -0,3 C 8,5 km/h (2 Bft)
16.11.2013 16:05 1,4 C 95 % 1025,8 hPa 0,0 l/m 6,1 km/h (2 Bft) N-NW 337 0,7 C -0,3 C 7,6 km/h (2 Bft)
16.11.2013 16:10 1,4 C 95 % 1025,6 hPa 0,0 l/m 6,3 km/h (2 Bft) N-NO 22 0,7 C -0,4 C 6,8 km/h (2 Bft)
16.11.2013 16:15 1,4 C 95 % 1025,6 hPa 0,0 l/m 6,1 km/h (2 Bft) W-NW 292 0,7 C -0,3 C 6,3 km/h (2 Bft)
16.11.2013 16:20 1,5 C 95 % 1025,6 hPa 0,0 l/m 4,7 km/h (1 Bft) N 360 0,8 C 0,3 C 6,0 km/h (2 Bft)
16.11.2013 16:25 1,5 C 95 % 1025,6 hPa 0,0 l/m 3,5 km/h (1 Bft) N-NW 337 0,8 C 0,9 C 2,6 km/h (1 Bft)
16.11.2013 16:30 1,5 C 95 % 1025,7 hPa 0,0 l/m 3,4 km/h (1 Bft) N-NO 22 0,8 C 0,9 C 7,2 km/h (2 Bft)
16.11.2013 16:35 1,5 C 95 % 1025,7 hPa 0,0 l/m 4,3 km/h (1 Bft) O-NO 67 0,8 C 0,4 C 6,1 km/h (2 Bft)
16.11.2013 16:40 1,4 C 96 % 1025,7 hPa 0,0 l/m 5,6 km/h (1 Bft) O 90 0,8 C -0,2 C 7,2 km/h (2 Bft)
16.11.2013 16:45 1,5 C 96 % 1025,7 hPa 0,0 l/m 4,8 km/h (1 Bft) W 270 0,9 C 0,2 C 4,3 km/h (1 Bft)
16.11.2013 16:50 1,5 C 96 % 1025,8 hPa 0,0 l/m 3,9 km/h (1 Bft) N-NW 337 0,9 C 0,7 C 6,4 km/h (2 Bft)
16.11.2013 16:55 1,5 C 96 % 1025,8 hPa 0,0 l/m 4,2 km/h (1 Bft) N 360 0,9 C 0,5 C 4,8 km/h (1 Bft)
16.11.2013 17:00 1,5 C 96 % 1025,8 hPa 0,0 l/m 4,2 km/h (1 Bft) NW 315 0,9 C 0,5 C 6,9 km/h (2 Bft)
16.11.2013 17:05 1,5 C 96 % 1025,8 hPa 0,0 l/m 4,7 km/h (1 Bft) N 360 0,9 C 0,3 C 11,3 km/h (2 Bft)
16.11.2013 17:10 1,5 C 96 % 1025,6 hPa 0,0 l/m 5,1 km/h (1 Bft) NO 45 0,9 C 0,1 C 4,8 km/h (1 Bft)
16.11.2013 17:15 1,4 C 96 % 1025,6 hPa 0,0 l/m 4,5 km/h (1 Bft) W-NW 292 0,8 C 0,3 C 3,4 km/h (1 Bft)
16.11.2013 17:20 1,5 C 96 % 1025,6 hPa 0,0 l/m 3,7 km/h (1 Bft) NO 45 0,9 C 0,8 C 4,3 km/h (1 Bft)
16.11.2013 17:24 1,5 C 96 % 1025,6 hPa 0,0 l/m 3,2 km/h (1 Bft) N 360 0,9 C 1,1 C 6,1 km/h (2 Bft)
16.11.2013 17:25 1,5 C 96 % 1025,6 hPa 0,0 l/m 3,2 km/h (1 Bft) N 360 0,9 C 1,1 C 6,1 km/h (2 Bft)
16.11.2013 17:30 1,5 C 96 % 1025,2 hPa 0,0 l/m 4,5 km/h (1 Bft) N 360 0,9 C 0,3 C 4,8 km/h (1 Bft)
16.11.2013 17:35 1,5 C 96 % 1025,2 hPa 0,0 l/m 4,8 km/h (1 Bft) N 360 0,9 C 0,2 C 7,6 km/h (2 Bft)
16.11.2013 17:40 1,5 C 96 % 1025,2 hPa 0,0 l/m 3,5 km/h (1 Bft) NW 315 0,9 C 0,9 C 2,3 km/h (1 Bft)
16.11.2013 17:45 1,5 C 96 % 1025,2 hPa 0,0 l/m 3,4 km/h (1 Bft) W-NW 292 0,9 C 0,9 C 2,3 km/h (1 Bft)
16.11.2013 17:50 1,5 C 96 % 1025,3 hPa 0,0 l/m 3,7 km/h (1 Bft) N 360 0,9 C 0,8 C 7,6 km/h (2 Bft)
16.11.2013 17:55 1,5 C 96 % 1025,3 hPa 0,0 l/m 3,7 km/h (1 Bft) N-NW 337 0,9 C 0,8 C 5,5 km/h (1 Bft)
16.11.2013 18:00 1,5 C 96 % 1025,3 hPa 0,0 l/m 4,5 km/h (1 Bft) N-NW 337 0,9 C 0,3 C 5,0 km/h (1 Bft)
16.11.2013 18:05 1,5 C 96 % 1025,3 hPa 0,0 l/m 3,9 km/h (1 Bft) N-NO 22 0,9 C 0,7 C 0,0 km/h (0 Bft)
16.11.2013 18:10 1,5 C 96 % 1025,1 hPa 0,0 l/m 3,5 km/h (1 Bft) W-NW 292 0,9 C 0,9 C 2,4 km/h (1 Bft)
16.11.2013 18:15 1,4 C 96 % 1025,1 hPa 0,0 l/m 4,0 km/h (1 Bft) N 360 0,8 C 0,6 C 6,6 km/h (2 Bft)
16.11.2013 18:20 1,5 C 96 % 1025,1 hPa 0,0 l/m 4,2 km/h (1 Bft) N 360 0,9 C 0,5 C 6,1 km/h (2 Bft)
16.11.2013 18:25 1,5 C 96 % 1025,1 hPa 0,0 l/m 3,9 km/h (1 Bft) N-NW 337 0,9 C 0,7 C 3,9 km/h (1 Bft)
16.11.2013 18:30 1,5 C 96 % 1025,0 hPa 0,0 l/m 3,2 km/h (1 Bft) NO 45 0,9 C 1,1 C 1,6 km/h (1 Bft)
16.11.2013 18:35 1,5 C 96 % 1025,0 hPa 0,0 l/m 2,3 km/h (1 Bft) N-NW 337 0,9 C 1,5 C 0,0 km/h (0 Bft)
16.11.2013 18:40 1,5 C 96 % 1025,0 hPa 0,0 l/m 2,4 km/h (1 Bft) NO 45 0,9 C 1,5 C 0,0 km/h (0 Bft)
16.11.2013 18:45 1,5 C 96 % 1025,0 hPa 0,0 l/m 2,7 km/h (1 Bft) N-NW 337 0,9 C 1,4 C 6,8 km/h (2 Bft)
16.11.2013 18:50 1,4 C 96 % 1024,8 hPa 0,0 l/m 3,9 km/h (1 Bft) N-NW 337 0,8 C 0,7 C 2,4 km/h (1 Bft)
16.11.2013 18:55 1,4 C 96 % 1024,8 hPa 0,0 l/m 4,5 km/h (1 Bft) N 360 0,8 C 0,3 C 3,9 km/h (1 Bft)
16.11.2013 19:00 1,4 C 96 % 1024,8 hPa 0,0 l/m 3,9 km/h (1 Bft) N 360 0,8 C 0,7 C 1,9 km/h (1 Bft)
16.11.2013 19:05 1,4 C 96 % 1024,8 hPa 0,0 l/m 3,1 km/h (1 Bft) W-NW 292 0,8 C 1,1 C 3,2 km/h (1 Bft)
16.11.2013 19:10 1,4 C 96 % 1024,8 hPa 0,0 l/m 3,1 km/h (1 Bft) N-NW 337 0,8 C 1,1 C 6,0 km/h (2 Bft)
16.11.2013 19:15 1,4 C 96 % 1024,8 hPa 0,0 l/m 3,5 km/h (1 Bft) W-NW 292 0,8 C 0,9 C 4,3 km/h (1 Bft)
16.11.2013 19:20 1,4 C 96 % 1024,8 hPa 0,0 l/m 3,5 km/h (1 Bft) N-NW 337 0,8 C 0,9 C 4,0 km/h (1 Bft)
16.11.2013 19:25 1,4 C 96 % 1024,8 hPa 0,0 l/m 3,4 km/h (1 Bft) N-NW 337 0,8 C 0,9 C 0,0 km/h (0 Bft)
16.11.2013 19:30 1,4 C 96 % 1024,8 hPa 0,0 l/m 2,6 km/h (1 Bft) W-NW 292 0,8 C 1,4 C 6,4 km/h (2 Bft)
16.11.2013 19:35 1,4 C 96 % 1024,8 hPa 0,0 l/m 2,6 km/h (1 Bft) NO 45 0,8 C 1,4 C 7,6 km/h (2 Bft)
16.11.2013 19:40 1,4 C 96 % 1024,8 hPa 0,0 l/m 3,7 km/h (1 Bft) N-NW 337 0,8 C 0,8 C 2,6 km/h (1 Bft)
16.11.2013 19:45 1,4 C 96 % 1024,8 hPa 0,0 l/m 3,9 km/h (1 Bft) N 360 0,8 C 0,6 C 4,8 km/h (1 Bft)
16.11.2013 19:50 1,4 C 96 % 1024,7 hPa 0,0 l/m 3,7 km/h (1 Bft) N-NW 337 0,8 C 0,7 C 3,9 km/h (1 Bft)
16.11.2013 19:55 1,4 C 96 % 1024,7 hPa 0,0 l/m 3,4 km/h (1 Bft) N-NW 337 0,8 C 0,8 C 3,9 km/h (1 Bft)
16.11.2013 20:00 1,4 C 96 % 1024,7 hPa 0,0 l/m 2,7 km/h (1 Bft) W 270 0,8 C 1,2 C 3,2 km/h (1 Bft)
16.11.2013 20:05 1,4 C 97 % 1024,7 hPa 0,0 l/m 2,6 km/h (1 Bft) N 360 1,0 C 1,3 C 5,3 km/h (1 Bft)
16.11.2013 20:10 1,4 C 97 % 1024,7 hPa 0,0 l/m 3,4 km/h (1 Bft) W-NW 292 1,0 C 0,8 C 3,2 km/h (1 Bft)
16.11.2013 20:15 1,4 C 97 % 1024,7 hPa 0,0 l/m 3,5 km/h (1 Bft) NW 315 1,0 C 0,7 C 0,0 km/h (0 Bft)
16.11.2013 20:20 1,3 C 97 % 1024,7 hPa 0,0 l/m 3,1 km/h (1 Bft) N-NO 22 0,9 C 1,0 C 6,9 km/h (2 Bft)
16.11.2013 20:25 1,3 C 97 % 1024,7 hPa 0,0 l/m 3,1 km/h (1 Bft) N 360 0,9 C 1,0 C 0,0 km/h (0 Bft)
16.11.2013 20:30 1,3 C 97 % 1024,5 hPa 0,0 l/m 3,5 km/h (1 Bft) W-NW 292 0,9 C 0,7 C 6,4 km/h (2 Bft)
16.11.2013 20:35 1,3 C 97 % 1024,5 hPa 0,0 l/m 3,7 km/h (1 Bft) NW 315 0,9 C 0,7 C 4,2 km/h (1 Bft)
16.11.2013 20:40 1,3 C 97 % 1024,5 hPa 0,0 l/m 4,0 km/h (1 Bft) W-NW 292 0,9 C 0,4 C 3,5 km/h (1 Bft)
16.11.2013 20:45 1,4 C 97 % 1024,5 hPa 0,0 l/m 3,2 km/h (1 Bft) N 360 1,0 C 0,9 C 4,2 km/h (1 Bft)
16.11.2013 20:50 1,3 C 97 % 1024,4 hPa 0,0 l/m 2,7 km/h (1 Bft) N 360 0,9 C 1,2 C 4,3 km/h (1 Bft)
16.11.2013 20:55 1,3 C 97 % 1024,4 hPa 0,0 l/m 2,6 km/h (1 Bft) N-NW 337 0,9 C 1,3 C 3,5 km/h (1 Bft)
16.11.2013 21:00 1,3 C 97 % 1024,4 hPa 0,0 l/m 2,1 km/h (1 Bft) NW 315 0,9 C 1,4 C 2,3 km/h (1 Bft)
16.11.2013 21:05 1,3 C 97 % 1024,4 hPa 0,0 l/m 2,1 km/h (1 Bft) N 360 0,9 C 1,4 C 3,5 km/h (1 Bft)
16.11.2013 21:10 1,3 C 97 % 1024,3 hPa 0,0 l/m 1,8 km/h (1 Bft) N-NW 337 0,9 C 1,4 C 5,0 km/h (1 Bft)
16.11.2013 21:15 1,3 C 97 % 1024,3 hPa 0,0 l/m 1,3 km/h (1 Bft) N 360 0,9 C 1,4 C 0,0 km/h (0 Bft)
16.11.2013 21:20 1,3 C 97 % 1024,3 hPa 0,0 l/m 1,4 km/h (1 Bft) W-NW 292 0,9 C 1,4 C 4,2 km/h (1 Bft)
16.11.2013 21:25 1,3 C 97 % 1024,3 hPa 0,0 l/m 1,9 km/h (1 Bft) N-NW 337 0,9 C 1,4 C 4,2 km/h (1 Bft)
16.11.2013 21:30 1,3 C 97 % 1024,2 hPa 0,0 l/m 3,1 km/h (1 Bft) N-NW 337 0,9 C 1,0 C 3,9 km/h (1 Bft)
16.11.2013 21:35 1,3 C 97 % 1024,2 hPa 0,0 l/m 2,6 km/h (1 Bft) N-NW 337 0,9 C 1,3 C 2,3 km/h (1 Bft)
16.11.2013 21:40 1,2 C 97 % 1024,2 hPa 0,0 l/m 2,1 km/h (1 Bft) N-NW 337 0,8 C 1,3 C 0,0 km/h (0 Bft)
16.11.2013 21:45 1,2 C 97 % 1024,2 hPa 0,0 l/m 2,7 km/h (1 Bft) NO 45 0,8 C 1,1 C 5,5 km/h (1 Bft)
16.11.2013 21:50 1,2 C 97 % 1024,1 hPa 0,0 l/m 3,1 km/h (1 Bft) N-NW 337 0,8 C 0,9 C 4,0 km/h (1 Bft)
16.11.2013 21:55 1,2 C 97 % 1024,1 hPa 0,0 l/m 3,4 km/h (1 Bft) N-NW 337 0,8 C 0,7 C 6,0 km/h (2 Bft)
16.11.2013 22:00 1,2 C 97 % 1024,1 hPa 0,0 l/m 2,7 km/h (1 Bft) N 360 0,8 C 1,1 C 3,9 km/h (1 Bft)
16.11.2013 22:05 1,2 C 97 % 1024,1 hPa 0,0 l/m 1,8 km/h (1 Bft) W-NW 292 0,8 C 1,3 C 0,0 km/h (0 Bft)
16.11.2013 22:10 1,2 C 97 % 1024,0 hPa 0,0 l/m 1,9 km/h (1 Bft) N 360 0,8 C 1,3 C 4,2 km/h (1 Bft)
16.11.2013 22:15 1,2 C 97 % 1024,0 hPa 0,0 l/m 1,6 km/h (1 Bft) W-NW 292 0,8 C 1,3 C 0,0 km/h (0 Bft)
16.11.2013 22:20 1,2 C 97 % 1024,0 hPa 0,0 l/m 1,6 km/h (1 Bft) N-NW 337 0,8 C 1,3 C 2,3 km/h (1 Bft)
16.11.2013 22:25 1,2 C 97 % 1024,0 hPa 0,0 l/m 1,9 km/h (1 Bft) N 360 0,8 C 1,2 C 2,7 km/h (1 Bft)
16.11.2013 22:30 1,2 C 97 % 1023,9 hPa 0,0 l/m 1,8 km/h (1 Bft) N-NW 337 0,8 C 1,2 C 0,0 km/h (0 Bft)
16.11.2013 22:35 1,2 C 97 % 1023,9 hPa 0,0 l/m 0,8 km/h (0 Bft) N-NO 22 0,8 C 1,2 C 0,0 km/h (0 Bft)
16.11.2013 22:40 1,2 C 97 % 1023,9 hPa 0,0 l/m 0,3 km/h (0 Bft) N-NW 337 0,8 C 1,2 C 1,8 km/h (1 Bft)
16.11.2013 22:45 1,2 C 97 % 1023,9 hPa 0,0 l/m 0,6 km/h (0 Bft) N 360 0,8 C 1,2 C 2,1 km/h (1 Bft)
16.11.2013 22:50 1,1 C 97 % 1023,6 hPa 0,0 l/m 2,1 km/h (1 Bft) N-NW 337 0,7 C 1,2 C 3,1 km/h (1 Bft)
16.11.2013 22:55 1,1 C 97 % 1023,6 hPa 0,0 l/m 2,3 km/h (1 Bft) N-NW 337 0,7 C 1,2 C 0,0 km/h (0 Bft)
16.11.2013 23:00 1,1 C 97 % 1023,6 hPa 0,0 l/m 1,8 km/h (1 Bft) N-NW 337 0,7 C 1,2 C 2,3 km/h (1 Bft)
16.11.2013 23:05 1,1 C 97 % 1023,6 hPa 0,0 l/m 1,6 km/h (1 Bft) N 360 0,7 C 1,2 C 2,3 km/h (1 Bft)
16.11.2013 23:10 1,1 C 97 % 1023,6 hPa 0,0 l/m 2,4 km/h (1 Bft) N-NW 337 0,7 C 1,2 C 6,8 km/h (2 Bft)
16.11.2013 23:15 1,1 C 97 % 1023,6 hPa 0,0 l/m 3,7 km/h (1 Bft) N-NW 337 0,7 C 0,3 C 3,2 km/h (1 Bft)
16.11.2013 23:20 1,1 C 97 % 1023,6 hPa 0,0 l/m 3,7 km/h (1 Bft) N 360 0,7 C 0,3 C 2,4 km/h (1 Bft)
16.11.2013 23:25 1,1 C 97 % 1023,6 hPa 0,0 l/m 3,1 km/h (1 Bft) N-NO 22 0,7 C 0,8 C 4,0 km/h (1 Bft)
16.11.2013 23:30 1,1 C 97 % 1023,7 hPa 0,0 l/m 1,9 km/h (1 Bft) N 360 0,7 C 1,1 C 0,0 km/h (0 Bft)
16.11.2013 23:35 1,1 C 97 % 1023,7 hPa 0,0 l/m 1,9 km/h (1 Bft) N 360 0,7 C 1,1 C 6,1 km/h (2 Bft)
16.11.2013 23:40 1,1 C 97 % 1023,7 hPa 0,0 l/m 3,2 km/h (1 Bft) N-NO 22 0,7 C 0,6 C 5,0 km/h (1 Bft)
16.11.2013 23:45 1,1 C 97 % 1023,7 hPa 0,0 l/m 3,2 km/h (1 Bft) N 360 0,7 C 0,6 C 3,1 km/h (1 Bft)
16.11.2013 23:50 1,1 C 97 % 1023,4 hPa 0,0 l/m 2,6 km/h (1 Bft) NW 315 0,7 C 1,1 C 2,3 km/h (1 Bft)
16.11.2013 23:55 1,1 C 97 % 1023,4 hPa 0,0 l/m 2,3 km/h (1 Bft) N-NO 22 0,7 C 1,1 C 4,0 km/h (1 Bft)
_ Min-Zeit 05:55 14:40 23:55 - 05:45 - - 05:55 16:10 23:30
Minimum _ 0,9 C 94 % 1023,4 hPa - 0,0 km/h (0 Bft) - - 0,5 C -0,4 C 0,0 km/h (0 Bft)
_ Max-Zeit 15:05 23:55 09:25 23:55 16:10 - - 10:35 11:55 13:40
Maximum _ 1,8 C 97 % 1028,6 hPa 0,0 l/m 6,3 km/h
N-NO (2 Bft)
- - 1,3 C 1,6 C 11,6 km/h
NW (2 Bft)
Durchschnitt _ 1,4 C 96 % 1026,1 hPa #0,0 l/m 2,9 km/h (1 Bft) N-NW - 0,8 C 0,9 C 3,6 km/h (1 Bft)